Temperature
14 14 14 14 14 14 14 14 14 14 14 14 14 14 14 14 14 14 14 14 14 14 14 14 14 14 14 15 15 15 15 15 15 14 15 14 14 14 14 14 14 14 14
14 14 14 14 14 14 14 14 14 14 14 14 14 14 14 14 14 14 14 14 14 14 14 14 14 14 14 14 14 14 14 14 14 14 14 14 14 14 14 14 14 14 14
14 14 14 14 14 14 14 14 14 14 14 14 14 14 14 14 14 14 14 14 14 14 14 14 14 14 14 14 14 14 14 14 14 14 14 14 14 14 14 14 14 14 14
14 14 14 14 14 14 14 14 14 14 14 14 14 14 14 14 14 14 14 14 14 14 14 14 14 14 14 14 14 14 14 14 14 14 14 14 14 14 14 14 14 14 14
14 14 13 13 14 14 14 14 14 14 14 14 14 14 14 14 14 14 14 14 14 14 14 14 14 14 13 13 13 13 13 13 13 14 14 13 13 14 13 13 14 14 14
13 13 13 13 13 13 14 14 14 14 14 14 14 13 13 14 13 14 13 13 13 13 14 13 14 14 13 13 13 13 13 13 13 13 13 13 13 13 13 13 13 13 13
13 13 13 13 13 13 13 13 13 14 14 14 14 13 13 13 13 13 13 13 13 13 13 13 13 13 13 13 13 13 13 13 13 13 13 13 13 13 13 13 13 13 13
13 13 13 13 13 13 13 13 13 13 13 13 13 13 13 13 13 13 13 13 13 13 13 13 13 13 13 13 13 13 13 13 13 13 13 13 13 13 13 13 13 13 12
12 12 12 12 12 13 13 13 13 13 13 13 13 13 13 13 13 13 13 13 13 13 13 12 13 13 12 13 12 13 12 12 12 12 12 12 12 12 12 12 12 12 12
12 12 12 12 12 12 12 13 13 13 13 13 13 13 13 13 13 13 13 13 13 12 12 12 12 12 12 12 12 12 12 12 12 12 12 12 12 12 12 12 12 12 12
11 11 11 12 12 12 12 12 12 12 12 12 13 13 13 13 13 12 12 12 12 12 12 12 12 12 12 12 12 12 12 12 12 12 12 11 12 12 12 12 12 12 12
11 11 11 11 11 11 12 12 12 12 12 12 12 12 12 13 12 12 12 12 12 12 12 12 12 12 12 11 11 11 12 12 11 11 11 11 11 11 11 11 12 12 11
11 11 11 11 11 11 11 11 11 12 12 12 12 12 12 12 12 12 12 12 11 11 11 12 12 11 11 11 11 11 11 11 11 11 11 11 11 11 11 11 11 11 11
11 11 11 11 11 11 11 11 11 11 11 11 11 11 12 12 12 12 12 11 11 11 11 11 11 11 11 11 11 11 11 11 11 11 11 11 11 11 11 11 11 11 11
11 11 11 11 11 10 10 11 11 11 11 11 11 11 11 11 11 11 11 11 11 11 11 11 11 11 11 10 10 10 10 10 10 10 10 10 10 10 10 10 10 10 10
10 10 10 10 10 10 10 10 10 10 10 10 11 11 11 11 11 11 11 11 10 10 10 10 10 10 10 10 10 10 10 10 10 10 10 10 10 10 10 10 10 10 10
10 10 10 10 10 10 10 10 10 10 10 10 10 10 10 10 10 10 10 10 10 10 10 10 10 10 9 9 9 9 9 9 9 9 9 9 9 9 9 9 9 9 9
9 9 9 9 9 9 9 9 9 9 9 9 9 9 9 10 10 10 10 10 10 9 9 9 9 9 9 9 9 9 9 9 9 9 9 9 9 9 9 9 9 9 9
9 9 9 9 9 9 9 9 9 9 9 9 9 9 9 9 9 9 9 9 9 9 9 9 8 8 8 8 8 8 8 8 8 8 9 9 9 9 9 9 9 9 9
8 8 9 9 9 8 8 8 8 8 8 8 8 8 8 8 8 8 8 8 8 8 8 8 8 8 8 8 8 8 8 8 8 8 8 8 8 8 8 8 8 8 8
8 8 8 8 8 8 8 8 8 8 8 8 8 8 8 8 8 8 8 8 8 8 8 8 7 7 7 7 7 7 7 7 7 7 7 7 7 7 8 8 8 8 8
7 7 7 7 7 7 7 7 7 7 7 7 7 7 7 7 7 7 7 7 7 7 7 7 7 7 7 6 6 6 6 6 7 7 7 7 7 7 7 7 7 7 7
7 7 7 7 7 7 7 6 6 6 6 6 6 6 6 6 6 7 7 7 7 7 7 7 6 6 6 6 6 5 5 5 6 6 6 7 7 7 7 7 7 7 7
7 7 6 6 6 6 6 6 6 6 6 6 6 6 6 6 6 6 6 6 6 6 6 6 6 6 6 6 5 5 5 5 5 5 6 6 6 6 6 6 6 7 6
6 6 6 6 6 6 5 5 5 5 5 5 5 5 5 5 5 5 5 5 5 5 5 5 6 6 5 5 5 5 5 5 5 5 5 5 6 6 6 6 6 6 6
5 5 5 5 5 5 5 5 5 5 5 5 5 5 5 5 5 5 5 5 5 5 5 5 5 5 5 5 5 5 4 4 4 4 4 4 5 5 5 5 5 5 5
Wind_Speed
2 2 3 5 6 6 7 7 8 8 8 9 9 9 10 10 10 10 10 10 11 12 12 12 13 13 14 14 16 17 18 18 18 18 17 18 18 17 17 17 16 16 19
3 3 5 6 7 7 7 8 8 8 8 8 9 9 9 10 10 10 10 11 12 13 13 13 14 14 14 14 15 16 17 17 17 17 17 17 17 17 17 16 16 16 18
3 4 6 7 7 7 8 8 8 8 8 8 8 9 9 9 10 10 10 11 11 12 13 14 14 14 14 14 15 16 16 16 16 16 15 14 15 16 16 16 17 17 17
5 5 5 7 8 8 8 8 8 8 8 8 8 8 8 9 9 10 10 11 11 12 13 13 13 13 13 14 14 15 16 15 15 14 13 12 13 15 15 15 16 16 16
4 5 6 8 8 8 8 8 9 8 7 8 8 8 8 8 9 10 10 11 11 12 12 12 12 12 13 13 14 14 15 15 14 14 12 12 12 15 15 15 15 15 16
4 5 6 8 8 8 9 9 8 8 8 8 8 8 8 8 9 9 10 10 11 11 11 11 11 11 11 12 13 14 14 14 13 13 12 11 11 13 14 15 15 15 15
3 4 6 8 8 9 9 9 8 8 8 8 8 8 8 8 9 9 10 10 10 10 10 10 10 10 10 11 12 13 13 13 12 11 10 10 11 13 14 14 14 14 14
4 5 5 7 8 8 8 9 8 8 8 8 8 8 8 9 9 9 9 10 9 10 10 10 9 9 10 11 12 13 13 12 11 10 9 9 11 12 13 13 13 13 13
5 5 5 5 6 7 8 9 8 8 8 8 8 8 8 9 9 9 9 9 9 9 10 9 9 9 10 11 12 12 12 12 11 8 8 8 10 11 11 12 12 11 12
4 4 4 5 5 6 7 8 8 8 8 8 8 8 8 8 8 9 8 8 9 9 10 10 10 11 11 11 12 11 12 11 10 8 7 8 9 10 11 11 11 11 11
3 3 3 4 5 5 6 6 7 7 7 7 7 8 8 7 7 8 8 8 8 9 9 10 10 11 11 11 11 11 11 9 9 7 6 7 9 9 9 9 10 10 10
4 3 2 3 4 5 5 6 6 6 6 6 6 7 7 7 7 7 7 8 8 9 9 10 10 10 10 9 10 10 9 9 8 7 6 7 7 8 8 8 8 9 9
4 3 2 3 4 5 4 5 5 5 6 6 6 7 7 7 6 6 6 6 7 8 8 9 9 9 8 8 8 8 8 8 7 6 6 6 6 7 7 7 7 8 8
3 3 3 3 3 4 5 4 4 4 4 4 5 6 6 5 5 5 5 5 6 6 6 7 7 8 8 8 8 8 7 6 6 5 5 5 5 5 5 6 6 7 7
3 3 3 3 3 4 4 4 4 4 4 4 5 5 5 4 3 3 4 4 5 5 5 5 6 6 7 7 7 7 6 6 5 4 4 4 4 5 5 5 5 6 7
4 4 3 3 4 4 4 3 3 4 4 5 5 4 5 5 4 4 3 3 4 5 5 5 5 5 5 5 5 5 5 5 5 4 4 4 4 5 5 5 5 6 6
4 4 4 4 3 4 4 4 4 4 4 4 3 4 4 5 5 5 3 3 3 4 5 5 5 5 4 4 4 4 4 4 3 3 3 3 3 4 5 5 4 4 5
2 3 4 4 4 3 3 4 4 4 4 3 3 3 3 4 4 4 3 2 3 4 4 4 3 2 2 2 2 2 2 3 3 2 3 3 3 3 4 4 4 3 3
4 4 4 4 4 3 3 3 4 3 3 3 3 3 2 3 4 4 3 3 4 4 3 3 2 2 2 2 2 2 2 2 2 2 2 2 3 3 3 3 3 2 2
3 3 3 3 3 3 2 2 2 2 2 2 2 2 2 3 4 4 3 3 4 3 2 2 2 2 2 2 2 2 2 1 1 1 1 2 2 2 3 3 3 2 1
1 2 2 3 3 3 2 2 3 3 2 1 1 2 2 3 4 4 3 3 3 3 3 3 2 3 2 2 2 1 2 1 1 1 1 1 1 1 2 2 3 2 1
3 2 2 2 2 2 2 2 2 2 2 2 1 2 3 3 4 4 4 3 3 3 3 3 2 2 1 1 2 1 0 2 1 1 1 0 0 1 1 1 2 2 2
3 4 3 3 3 2 1 1 1 1 1 1 2 2 2 3 4 4 5 3 3 4 4 4 4 3 3 1 1 2 2 2 1 1 1 0 1 0 1 1 1 2 3
4 3 3 3 3 2 2 2 3 3 2 3 2 2 2 3 4 4 4 4 4 3 4 4 4 2 4 4 1 0 0 2 2 1 2 1 1 1 1 1 1 1 2
2 2 2 2 2 2 2 3 4 2 2 1 1 2 2 2 2 3 4 4 3 3 4 4 3 3 3 4 3 1 0 0 0 2 2 2 2 2 1 2 2 2 2
1 1 1 2 1 1 2 2 3 3 2 2 2 2 2 2 2 2 4 3 4 4 4 4 4 5 4 3 3 2 2 2 2 2 3 2 3 2 2 2 2 3 2
Wind_Direction
214 217 163 132 111 108 103 98 94 93 92 93 91 91 89 84 81 81 79 78 75 78 85 90 90 87 84 83 82 83 84 85 86 86 85 84 86 87 86 84 83 85 87
170 173 153 129 116 109 109 104 98 94 92 93 92 89 86 84 84 81 79 77 76 80 88 93 91 89 87 86 85 86 87 87 86 84 84 84 85 86 87 86 86 88 88
130 149 146 129 119 114 108 108 105 98 93 90 91 89 86 83 85 83 82 79 80 82 85 88 88 88 88 88 89 90 90 88 86 81 79 82 87 87 87 87 87 88 89
128 136 138 130 124 119 115 110 105 100 98 93 91 91 90 88 86 84 83 80 80 83 86 87 88 88 88 90 91 92 91 88 83 79 76 78 88 90 87 87 88 88 89
113 127 140 132 127 125 120 116 108 101 100 99 94 92 92 92 90 86 83 82 81 84 87 88 89 90 90 91 92 93 91 88 82 78 77 77 87 92 90 88 89 90 90
109 124 138 134 130 129 125 121 116 110 102 101 99 94 94 92 91 87 84 83 82 85 86 86 88 89 90 92 93 93 91 87 81 79 79 81 87 94 94 92 90 91 92
107 108 128 133 128 127 126 122 117 109 102 96 101 100 96 95 90 87 86 84 83 84 86 86 88 93 93 94 95 93 90 85 82 80 80 85 92 95 96 95 94 93 94
108 98 118 129 126 123 120 116 112 107 100 96 90 96 96 97 96 90 86 85 83 85 83 81 86 98 102 98 96 93 88 85 83 80 80 89 99 99 99 97 96 96 95
96 90 92 109 119 121 120 116 112 106 99 93 91 87 90 97 98 92 88 86 83 83 85 83 86 101 106 103 99 94 89 86 82 80 83 93 102 102 101 101 99 100 97
94 87 83 91 100 107 113 113 110 107 100 95 91 88 84 90 100 98 91 87 84 84 87 86 89 102 101 99 96 92 88 83 80 78 83 98 105 104 102 103 104 101 102
111 96 84 88 92 97 103 107 108 107 102 97 92 90 84 83 98 99 94 89 85 86 90 91 89 91 91 92 90 87 84 81 77 75 82 99 102 105 105 105 106 105 102
159 142 110 108 100 100 103 102 98 99 98 94 91 89 87 84 93 99 98 90 86 87 88 91 90 87 84 86 82 80 81 80 77 71 81 97 98 101 106 107 109 108 105
174 153 136 123 114 110 103 104 97 95 95 95 94 91 90 86 85 92 91 86 83 85 85 86 85 86 87 88 84 81 82 79 77 74 81 94 101 101 104 111 112 113 111
161 166 159 135 123 120 117 113 105 99 98 99 101 102 99 94 83 91 92 89 87 88 87 88 89 91 88 89 90 87 82 80 77 78 82 90 101 108 110 115 120 119 117
184 180 171 154 146 135 125 123 116 112 116 113 108 108 110 110 100 98 102 98 93 95 95 94 94 93 89 86 88 91 88 83 82 84 84 87 103 111 118 116 124 127 121
195 190 180 168 162 151 144 141 141 131 127 119 114 115 119 123 124 107 105 101 97 102 105 104 102 101 97 94 88 90 90 89 88 88 90 93 106 117 122 124 119 132 132
203 194 183 177 162 162 157 150 144 136 129 124 123 126 123 126 133 127 119 115 105 109 107 101 93 90 87 84 76 77 80 81 82 80 87 97 108 121 130 130 126 130 142
198 199 188 174 166 169 163 151 144 141 137 134 133 135 131 131 134 130 123 124 111 111 110 109 105 81 75 76 69 51 64 74 73 80 91 104 108 121 133 135 139 135 158
198 193 182 174 172 174 159 147 141 136 135 139 138 138 148 141 142 138 130 130 123 110 111 122 93 95 102 88 75 41 35 49 58 72 84 98 109 120 128 133 141 153 176
196 186 174 166 163 160 150 144 138 127 123 124 137 148 158 157 153 144 135 133 133 122 112 121 118 91 106 110 81 41 6 2 55 66 60 74 87 104 125 133 134 142 177
162 164 161 158 159 150 163 175 182 189 186 171 161 174 171 164 160 152 136 142 144 146 146 130 120 112 91 92 86 39 4 1 43 47 66 65 64 87 124 137 141 148 187
195 190 173 162 161 169 182 188 190 188 191 193 185 193 191 180 172 166 153 163 166 149 141 135 129 135 124 119 120 119 350 323 338 347 341 197 267 97 106 171 171 185 202
208 207 199 189 187 188 167 123 94 96 123 197 204 203 204 191 182 171 172 170 174 166 169 170 162 155 167 177 110 144 161 219 288 296 286 305 343 310 276 253 229 227 226
222 209 196 192 194 191 171 176 177 194 207 216 208 198 187 188 185 179 172 173 181 178 176 181 183 176 174 183 192 17 152 165 174 259 288 299 329 307 304 279 267 258 257
224 199 196 190 194 193 189 196 197 191 193 185 178 182 186 191 188 182 182 183 188 188 184 183 183 182 186 191 184 174 133 88 184 190 238 269 300 274 266 250 237 239 260
27 137 161 176 201 206 203 205 190 184 181 165 186 201 204 207 210 205 198 197 194 192 190 190 191 188 194 192 190 181 181 180 193 191 212 247 263 267 270 244 231 220 235
Height
1525 1527 1529 1530 1531 1532 1533 1534 1535 1535 1536 1536 1537 1537 1537 1537 1536 1536 1535 1534 1532 1529 1528 1530 1532 1535 1536 1536 1536 1536 1536 1537 1539 1540 1541 1542 1543 1544 1545 1546 1546 1547 1548
1525 1526 1528 1530 1531 1532 1533 1534 1535 1535 1536 1537 1537 1537 1537 1537 1537 1537 1536 1535 1533 1530 1529 1531 1534 1536 1537 1538 1538 1538 1539 1540 1541 1542 1543 1544 1545 1546 1547 1548 1548 1549 1549
1524 1526 1528 1529 1531 1532 1533 1534 1535 1535 1536 1537 1537 1538 1538 1538 1538 1537 1537 1536 1535 1534 1534 1535 1536 1537 1538 1539 1540 1540 1541 1542 1543 1544 1545 1546 1547 1548 1549 1549 1550 1550 1551
1524 1526 1527 1529 1530 1532 1533 1534 1535 1536 1536 1537 1538 1538 1538 1538 1538 1538 1538 1537 1537 1537 1537 1537 1538 1539 1540 1540 1541 1542 1543 1543 1544 1545 1546 1547 1548 1549 1550 1551 1551 1552 1553
1524 1526 1527 1529 1530 1531 1533 1534 1535 1536 1536 1537 1538 1538 1539 1539 1539 1539 1539 1539 1538 1538 1539 1539 1539 1540 1541 1541 1542 1543 1544 1545 1546 1547 1548 1549 1550 1551 1551 1552 1553 1553 1554
1524 1526 1527 1529 1530 1531 1532 1533 1534 1535 1536 1537 1538 1538 1538 1539 1539 1540 1539 1540 1540 1540 1539 1540 1540 1541 1541 1542 1543 1544 1545 1546 1547 1548 1549 1550 1551 1552 1552 1553 1554 1555 1555
1523 1525 1527 1528 1530 1531 1532 1533 1534 1535 1536 1537 1537 1538 1538 1539 1539 1540 1540 1540 1540 1540 1540 1540 1540 1541 1542 1543 1544 1545 1546 1547 1548 1549 1550 1551 1552 1553 1553 1554 1555 1556 1556
1523 1525 1526 1528 1529 1530 1532 1533 1534 1535 1536 1536 1537 1538 1538 1539 1539 1540 1540 1540 1540 1540 1540 1539 1539 1539 1541 1543 1544 1545 1546 1548 1549 1550 1551 1552 1553 1554 1554 1555 1556 1556 1557
1523 1524 1526 1527 1529 1530 1531 1532 1534 1534 1535 1536 1537 1537 1538 1539 1539 1540 1540 1540 1541 1541 1540 1538 1536 1536 1540 1542 1544 1545 1547 1548 1549 1550 1551 1552 1553 1554 1555 1556 1556 1557 1558
1522 1524 1525 1527 1528 1529 1530 1532 1533 1534 1534 1535 1536 1537 1537 1538 1539 1539 1540 1540 1540 1540 1540 1539 1536 1537 1540 1542 1544 1546 1547 1549 1550 1551 1552 1553 1554 1555 1555 1556 1557 1557 1558
1521 1523 1524 1526 1527 1528 1530 1531 1532 1533 1534 1534 1535 1536 1537 1537 1538 1539 1539 1540 1540 1540 1540 1540 1539 1540 1542 1543 1544 1546 1547 1549 1550 1551 1552 1553 1554 1555 1556 1556 1557 1558 1558
1519 1521 1522 1524 1525 1527 1529 1530 1531 1532 1533 1533 1534 1535 1536 1536 1537 1538 1539 1539 1540 1540 1540 1541 1541 1542 1543 1544 1545 1546 1547 1549 1550 1551 1552 1553 1554 1554 1555 1556 1557 1557 1558
1517 1519 1521 1522 1524 1525 1527 1528 1530 1530 1531 1532 1533 1534 1535 1535 1536 1537 1538 1538 1539 1540 1540 1540 1541 1542 1543 1544 1545 1546 1547 1548 1550 1551 1552 1552 1553 1554 1555 1556 1556 1557 1558
1515 1517 1519 1520 1522 1524 1525 1527 1528 1529 1530 1531 1532 1533 1534 1534 1535 1535 1536 1537 1538 1539 1539 1540 1541 1541 1542 1543 1544 1545 1547 1548 1549 1550 1551 1552 1552 1553 1554 1555 1556 1556 1557
1513 1515 1517 1518 1520 1522 1523 1525 1526 1527 1528 1529 1530 1531 1532 1533 1533 1533 1534 1536 1536 1537 1538 1539 1540 1540 1541 1542 1543 1544 1546 1547 1548 1549 1550 1551 1551 1552 1553 1554 1555 1555 1556
1510 1512 1514 1516 1518 1519 1521 1522 1524 1525 1526 1527 1528 1529 1530 1531 1532 1532 1533 1534 1535 1536 1537 1538 1539 1539 1540 1541 1542 1543 1544 1546 1547 1547 1548 1549 1550 1551 1551 1552 1553 1554 1555
1508 1510 1511 1513 1515 1517 1518 1520 1521 1523 1524 1525 1526 1527 1528 1529 1530 1530 1531 1532 1533 1534 1535 1536 1537 1538 1539 1540 1540 1542 1542 1544 1545 1545 1547 1548 1549 1549 1550 1551 1552 1553 1554
1505 1507 1508 1510 1512 1514 1516 1517 1519 1520 1521 1522 1523 1525 1526 1527 1528 1529 1529 1530 1531 1532 1533 1534 1535 1536 1537 1538 1539 1540 1541 1542 1543 1544 1545 1546 1547 1547 1548 1549 1550 1551 1552
1502 1504 1505 1507 1509 1511 1513 1514 1516 1517 1518 1520 1521 1522 1523 1524 1525 1526 1527 1527 1528 1529 1531 1532 1533 1534 1535 1536 1536 1538 1539 1540 1541 1541 1542 1543 1544 1545 1546 1547 1548 1549 1549
1499 1501 1503 1504 1506 1507 1509 1511 1513 1514 1515 1517 1518 1519 1520 1521 1522 1524 1525 1525 1526 1527 1528 1529 1531 1532 1533 1534 1534 1535 1537 1538 1538 1539 1540 1541 1542 1543 1544 1545 1546 1546 1547
1496 1497 1499 1500 1502 1504 1505 1507 1508 1510 1512 1513 1515 1516 1517 1518 1519 1520 1521 1523 1523 1524 1525 1527 1528 1529 1530 1531 1532 1533 1534 1535 1536 1536 1537 1538 1539 1541 1542 1543 1543 1544 1544
1491 1493 1495 1497 1498 1500 1502 1503 1505 1506 1508 1509 1511 1512 1513 1515 1516 1517 1518 1519 1520 1521 1522 1524 1525 1526 1527 1528 1529 1530 1531 1533 1532 1533 1534 1535 1537 1538 1539 1540 1541 1541 1542
1487 1489 1491 1493 1494 1496 1498 1500 1501 1502 1504 1505 1506 1507 1509 1511 1512 1513 1514 1516 1517 1518 1519 1520 1522 1523 1523 1525 1527 1528 1529 1528 1528 1530 1531 1532 1533 1534 1536 1537 1537 1538 1538
1483 1486 1487 1489 1491 1492 1494 1495 1497 1497 1498 1500 1501 1503 1505 1507 1508 1509 1510 1511 1513 1513 1514 1516 1518 1519 1520 1521 1523 1525 1526 1526 1527 1526 1527 1528 1529 1530 1532 1532 1533 1534 1535
1480 1482 1483 1485 1487 1489 1490 1492 1493 1494 1495 1497 1498 1499 1500 1502 1504 1505 1506 1507 1508 1509 1510 1512 1513 1515 1516 1517 1518 1520 1521 1522 1523 1523 1522 1523 1524 1526 1527 1528 1529 1530 1531
1476 1478 1479 1481 1483 1484 1486 1487 1489 1490 1491 1492 1493 1494 1496 1497 1499 1500 1502 1503 1504 1505 1506 1507 1509 1510 1512 1513 1514 1515 1517 1518 1519 1520 1519 1519 1519 1520 1522 1523 1524 1525 1526